When you browse on this site, cookies collect data to enhance your experience and personalize the content and advertising you see.
Visit our Privacy Policy to learn more. By continuing to use the site, you agree to this use of cookies and data.
  • In Germany
  • List of Countries
  • For 7 days
  • Water Temperature
  • Satellite Maps
  • Weather Map
  • Weather Widgets
  • user-avatar
    Login

    Hourly Weather Losie

    Today, 22 May, Wednesday

    Time Temperature Precipitation Wind Pressure Humidity
    00:00 +12°C° 0 mm 3 mps 745 mmHg 90%
    01:00 +11°C° 0 mm 4 mps 744 mmHg 91%
    02:00 +11°C° 0 mm 4 mps 745 mmHg 92%
    03:00 +11°C° 0 mm 4 mps 745 mmHg 92%
    04:00 +11°C° 0 mm 4 mps 745 mmHg 93%
    05:00 +12°C° 0 mm 4 mps 745 mmHg 89%
    06:00 +14°C° 0 mm 5 mps 745 mmHg 85%
    07:00 +15°C° 0 mm 5 mps 745 mmHg 79%
    08:00 +16°C° 0.1 mm 5 mps 745 mmHg 77%
    09:00 +16°C° 0.1 mm 5 mps 745 mmHg 74%
    10:00 +17°C° 0.1 mm 5 mps 746 mmHg 72%
    11:00 +19°C° 0.4 mm 5 mps 746 mmHg 71%
    12:00 +19°C° 0.4 mm 5 mps 745 mmHg 70%
    13:00 +20°C° 0.4 mm 4 mps 745 mmHg 69%
    14:00 +20°C° 0.5 mm 4 mps 745 mmHg 70%
    15:00 +20°C° 0.5 mm 4 mps 745 mmHg 71%
    16:00 +20°C° 0.5 mm 4 mps 745 mmHg 72%
    17:00 +19°C° 0.5 mm 4 mps 745 mmHg 77%
    18:00 +19°C° 0.5 mm 3 mps 746 mmHg 81%
    19:00 +18°C° 0.5 mm 3 mps 746 mmHg 86%
    20:00 +17°C° 0.2 mm 2 mps 746 mmHg 88%
    21:00 +16°C° 0.2 mm 2 mps 746 mmHg 90%
    22:00 +15°C° 0.2 mm 2 mps 747 mmHg 93%
    23:00 +15°C° 0.1 mm 2 mps 747 mmHg 93%

    Tomorrow, 23 May, Thursday

    Time Temperature Precipitation Wind Pressure Humidity
    00:00 +14°C° 0.1 mm 2 mps 747 mmHg 94%
    01:00 +14°C° 0.1 mm 2 mps 748 mmHg 94%
    02:00 +14°C° 0 mm 1 mps 748 mmHg 94%
    03:00 +13°C° 0 mm 1 mps 748 mmHg 95%
    04:00 +13°C° 0 mm 1 mps 748 mmHg 95%
    05:00 +15°C° 0 mm 1 mps 748 mmHg 91%
    06:00 +16°C° 0 mm 2 mps 749 mmHg 87%
    07:00 +18°C° 0 mm 2 mps 749 mmHg 83%
    08:00 +19°C° 0.1 mm 2 mps 749 mmHg 77%
    09:00 +20°C° 0.1 mm 2 mps 750 mmHg 72%
    10:00 +21°C° 0.1 mm 2 mps 750 mmHg 66%
    11:00 +21°C° 0.9 mm 3 mps 750 mmHg 68%
    12:00 +21°C° 0.9 mm 4 mps 750 mmHg 71%
    13:00 +21°C° 0.9 mm 4 mps 750 mmHg 73%
    14:00 +21°C° 0.8 mm 5 mps 750 mmHg 75%
    15:00 +21°C° 0.8 mm 5 mps 750 mmHg 77%
    16:00 +20°C° 0.8 mm 6 mps 750 mmHg 79%
    17:00 +19°C° 0.2 mm 5 mps 750 mmHg 81%
    18:00 +17°C° 0.2 mm 5 mps 750 mmHg 83%
    19:00 +16°C° 0.2 mm 5 mps 750 mmHg 85%
    20:00 +15°C° 0 mm 5 mps 751 mmHg 86%
    21:00 +14°C° 0 mm 4 mps 751 mmHg 87%
    22:00 +13°C° 0 mm 4 mps 751 mmHg 88%
    23:00 +12°C° 0 mm 4 mps 751 mmHg 85%

    Day after tomorrow, 24 May, Friday

    Time Temperature Precipitation Wind Pressure Humidity
    00:00 +12°C° 0 mm 4 mps 752 mmHg 81%
    01:00 +12°C° 0 mm 4 mps 752 mmHg 77%
    02:00 +11°C° 0 mm 3 mps 752 mmHg 78%
    03:00 +11°C° 0 mm 3 mps 752 mmHg 78%
    04:00 +10°C° 0 mm 3 mps 752 mmHg 79%
    05:00 +11°C° 0 mm 3 mps 752 mmHg 78%
    06:00 +12°C° 0 mm 3 mps 752 mmHg 77%
    07:00 +13°C° 0 mm 3 mps 752 mmHg 76%
    08:00 +15°C° 0 mm 4 mps 752 mmHg 71%
    09:00 +17°C° 0 mm 4 mps 752 mmHg 67%
    10:00 +19°C° 0 mm 4 mps 752 mmHg 62%
    11:00 +20°C° 0 mm 4 mps 751 mmHg 60%
    12:00 +21°C° 0 mm 4 mps 751 mmHg 57%
    13:00 +21°C° 0 mm 5 mps 751 mmHg 55%
    14:00 +22°C° 0 mm 4 mps 751 mmHg 55%
    15:00 +22°C° 0 mm 4 mps 750 mmHg 55%
    16:00 +22°C° 0 mm 4 mps 750 mmHg 56%
    17:00 +20°C° 0 mm 4 mps 750 mmHg 61%
    18:00 +19°C° 0 mm 3 mps 750 mmHg 66%
    19:00 +18°C° 0 mm 3 mps 750 mmHg 71%
    20:00 +16°C° 0 mm 2 mps 750 mmHg 74%
    21:00 +15°C° 0 mm 2 mps 750 mmHg 77%
    22:00 +14°C° 0 mm 2 mps 751 mmHg 81%
    23:00 +13°C° 0 mm 1 mps 750 mmHg 81%

    25 May, Saturday

    Time Temperature Precipitation Wind Pressure Humidity
    00:00 +13°C° 0 mm 1 mps 750 mmHg 82%
    01:00 +11°C° 0 mm 0 mps 750 mmHg 83%
    02:00 +11°C° 0 mm 0 mps 750 mmHg 83%
    03:00 +12°C° 0 mm 1 mps 750 mmHg 83%
    04:00 +13°C° 0 mm 1 mps 750 mmHg 84%
    05:00 +14°C° 0 mm 2 mps 750 mmHg 80%
    06:00 +16°C° 0 mm 3 mps 750 mmHg 77%
    07:00 +17°C° 0 mm 3 mps 750 mmHg 73%
    08:00 +19°C° 0.1 mm 4 mps 750 mmHg 67%
    09:00 +20°C° 0.1 mm 4 mps 750 mmHg 60%
    10:00 +21°C° 0.1 mm 5 mps 750 mmHg 54%
    11:00 +21°C° 0.3 mm 5 mps 749 mmHg 56%
    12:00 +21°C° 0.3 mm 5 mps 749 mmHg 58%
    13:00 +21°C° 0.3 mm 5 mps 749 mmHg 61%
    14:00 +21°C° 0.1 mm 5 mps 749 mmHg 58%
    15:00 +21°C° 0.1 mm 5 mps 749 mmHg 56%
    16:00 +21°C° 0.1 mm 5 mps 749 mmHg 54%
    17:00 +20°C° 0 mm 4 mps 749 mmHg 59%
    18:00 +19°C° 0 mm 4 mps 749 mmHg 65%
    19:00 +17°C° 0 mm 3 mps 749 mmHg 70%
    20:00 +17°C° 0 mm 3 mps 749 mmHg 71%
    21:00 +16°C° 0 mm 3 mps 749 mmHg 73%
    22:00 +14°C° 0 mm 3 mps 750 mmHg 75%
    23:00 +13°C° 0 mm 3 mps 750 mmHg 78%

    26 May, Sunday

    Time Temperature Precipitation Wind Pressure Humidity
    00:00 +12°C° 0 mm 3 mps 750 mmHg 82%
    01:00 +11°C° 0 mm 3 mps 750 mmHg 86%
    02:00 +10°C° 0 mm 3 mps 750 mmHg 88%
    03:00 +10°C° 0 mm 3 mps 750 mmHg 89%
    04:00 +9°C° 0 mm 3 mps 749 mmHg 90%
    05:00 +10°C° 0 mm 3 mps 749 mmHg 85%
    06:00 +11°C° 0 mm 4 mps 749 mmHg 80%
    07:00 +12°C° 0 mm 5 mps 749 mmHg 75%
    08:00 +13°C° 0 mm 5 mps 749 mmHg 72%
    09:00 +13°C° 0 mm 6 mps 749 mmHg 70%
    10:00 +14°C° 0 mm 6 mps 749 mmHg 67%
    11:00 +14°C° 0 mm 6 mps 749 mmHg 66%
    12:00 +14°C° 0 mm 6 mps 749 mmHg 65%
    13:00 +14°C° 0 mm 6 mps 748 mmHg 63%
    14:00 +14°C° 0.1 mm 7 mps 748 mmHg 63%
    15:00 +14°C° 0.1 mm 7 mps 748 mmHg 63%
    16:00 +14°C° 0.1 mm 7 mps 748 mmHg 63%
    17:00 +13°C° 0.1 mm 6 mps 748 mmHg 66%
    18:00 +11°C° 0.1 mm 6 mps 748 mmHg 68%
    19:00 +10°C° 0.1 mm 6 mps 748 mmHg 71%
    20:00 +9°C° 0 mm 5 mps 749 mmHg 71%
    21:00 +8°C° 0 mm 5 mps 749 mmHg 72%
    22:00 +7°C° 0 mm 5 mps 749 mmHg 73%
    23:00 +7°C° 0 mm 5 mps 749 mmHg 73%

    27 May, Monday

    Time Temperature Precipitation Wind Pressure Humidity
    00:00 +7°C° 0 mm 5 mps 750 mmHg 74%
    01:00 +6°C° 0 mm 5 mps 750 mmHg 75%
    02:00 +6°C° 0 mm 5 mps 750 mmHg 75%
    03:00 +6°C° 0 mm 5 mps 750 mmHg 76%
    04:00 +6°C° 0 mm 5 mps 750 mmHg 76%
    05:00 +7°C° 0 mm 5 mps 750 mmHg 73%
    06:00 +8°C° 0 mm 5 mps 750 mmHg 70%
    07:00 +10°C° 0 mm 5 mps 751 mmHg 67%
    08:00 +12°C° 0 mm 5 mps 751 mmHg 64%
    09:00 +13°C° 0 mm 5 mps 751 mmHg 60%
    10:00 +14°C° 0 mm 4 mps 751 mmHg 57%
    11:00 +15°C° 0 mm 4 mps 751 mmHg 53%
    12:00 +18°C° 0 mm 4 mps 750 mmHg 50%
    13:00 +19°C° 0 mm 4 mps 750 mmHg 46%
    14:00 +19°C° 0 mm 3 mps 750 mmHg 46%
    15:00 +19°C° 0 mm 3 mps 749 mmHg 45%
    16:00 +20°C° 0 mm 3 mps 749 mmHg 44%
    17:00 +19°C° 0 mm 2 mps 749 mmHg 50%
    18:00 +18°C° 0 mm 2 mps 748 mmHg 55%
    19:00 +17°C° 0 mm 2 mps 748 mmHg 61%
    20:00 +16°C° 0 mm 2 mps 748 mmHg 62%
    21:00 +14°C° 0 mm 3 mps 748 mmHg 64%
    22:00 +13°C° 0 mm 3 mps 748 mmHg 65%
    23:00 +13°C° 0 mm 3 mps 747 mmHg 69%
    Show more